Tracking 28799 objects as of 18-Apr-2024
HD Live streaming from Space Station
objects crossing your sky now

COSMOS 807

Track COSMOS 807 now!
10-day predictions
COSMOS 807 is classified as:


NORAD ID: 8744
Int'l Code: 1976-022A
Perigee: 375.9 km
Apogee: 1,112.2 km
Inclination: 82.9 °
Period: 99.5 minutes
Semi major axis: 7115 km
RCS: 2.9772 m2 (large)
Launch date: March 12, 1976
Source: Commonwealth of Independent States (former USSR) (CIS)
Launch site: PLESETSK MISSILE AND SPACE COMPLEX (PKMTR)
Your satellite tracking list
Your tracking list is empty




NASA's NSSDC Master Catalog

Two Line Element Set (TLE):
1 08744U 76022A   24108.90255603  .00010528  00000-0  49717-3 0  9992
2 08744  82.9216 273.2795 0517432 260.8499 211.7317 14.46562299434661
Source of the keplerian elements: AFSPC